| time (UTC) | temp C | wind direction | speed KPH | gust KPH | rain 1hr cm | rain 24hr cm | rain mn cm | humidity % | barometer mb |
| 20260509084552 | 9 | 0 | 0.0 | 0.0 | 0.00 | 0.00 | 0.00 | 65 | 1018.9 |
| 20260509084047 | 9 | 0 | 0.0 | 0.0 | 0.00 | 0.00 | 0.00 | 65 | 1019.0 |
| 20260509083546 | 9 | 0 | 0.0 | 0.0 | 0.00 | 0.00 | 0.00 | 65 | 1019.0 |
| 20260509083050 | 9 | 0 | 0.0 | 0.0 | 0.00 | 0.00 | 0.00 | 67 | 1018.9 |
| 20260509082547 | 9 | 0 | 0.0 | 0.0 | 0.00 | 0.00 | 0.00 | 65 | 1018.9 |
| 20260509082047 | 9 | 0 | 0.0 | 0.0 | 0.00 | 0.00 | 0.00 | 68 | 1018.9 |
| 20260509081601 | 9 | 0 | 0.0 | 0.0 | 0.00 | 0.00 | 0.00 | 67 | 1018.9 |
| 20260509081048 | 9 | 0 | 0.0 | 0.0 | 0.00 | 0.00 | 0.00 | 68 | 1019.0 |
| 20260509080547 | 10 | 0 | 0.0 | 0.0 | 0.00 | 0.00 | 0.00 | 67 | 1019.1 |
| 20260509080058 | 10 | 0 | 0.0 | 0.0 | 0.00 | 0.00 | 0.00 | 66 | 1019.2 |
| 20260509075548 | 10 | 0 | 0.0 | 0.0 | 0.00 | 0.00 | 0.00 | 65 | 1019.1 |
| 20260509075048 | 10 | 0 | 0.0 | 0.0 | 0.00 | 0.00 | 0.00 | 68 | 1019.3 |
| 20260509074556 | 10 | 0 | 0.0 | 0.0 | 0.00 | 0.00 | 0.00 | 69 | 1019.4 |
| 20260509074046 | 10 | 0 | 0.0 | 0.0 | 0.00 | 0.00 | 0.00 | 70 | 1019.4 |
| 20260509073550 | 10 | 0 | 0.0 | 0.0 | 0.00 | 0.00 | 0.00 | 70 | 1019.4 |
| 20260509073104 | 10 | 0 | 0.0 | 0.0 | 0.00 | 0.00 | 0.00 | 68 | 1019.4 |
| 20260509072549 | 10 | 0 | 0.0 | 0.0 | 0.00 | 0.00 | 0.00 | 68 | 1019.5 |
| 20260509072047 | 10 | 0 | 0.0 | 0.0 | 0.00 | 0.00 | 0.00 | 66 | 1019.5 |
| 20260509071553 | 10 | 0 | 0.0 | 0.0 | 0.00 | 0.00 | 0.00 | 65 | 1019.5 |
| 20260509071048 | 10 | 0 | 0.0 | 0.0 | 0.00 | 0.00 | 0.00 | 66 | 1019.6 |
| 20260509070547 | 10 | 0 | 0.0 | 0.0 | 0.00 | 0.00 | 0.00 | 67 | 1019.6 |
| 20260509065544 | 10 | 0 | 0.0 | 0.0 | 0.00 | 0.00 | 0.00 | 66 | 1019.6 |
| 20260509065044 | 10 | 0 | 0.0 | 0.0 | 0.00 | 0.00 | 0.00 | 67 | 1019.6 |
| 20260509064552 | 10 | 0 | 0.0 | 0.0 | 0.00 | 0.00 | 0.00 | 65 | 1019.6 |
| 20260509064047 | 10 | 0 | 0.0 | 0.0 | 0.00 | 0.00 | 0.00 | 66 | 1019.6 |
| 20260509063544 | 11 | 0 | 0.0 | 0.0 | 0.00 | 0.00 | 0.00 | 63 | 1019.7 |
| 20260509063056 | 11 | 0 | 0.0 | 1.6 | 0.00 | 0.00 | 0.00 | 65 | 1019.7 |
| 20260509062545 | 11 | 0 | 0.0 | 1.6 | 0.00 | 0.00 | 0.00 | 64 | 1019.7 |
| 20260509062045 | 11 | 0 | 0.0 | 1.6 | 0.00 | 0.00 | 0.00 | 65 | 1019.8 |
| 20260509061609 | 11 | 0 | 0.0 | 1.6 | 0.00 | 0.00 | 0.00 | 63 | 1019.9 |
| 20260509061048 | 11 | 20 | 0.0 | 1.6 | 0.00 | 0.00 | 0.00 | 63 | 1019.9 |
| 20260509060550 | 11 | 0 | 0.0 | 1.6 | 0.00 | 0.00 | 0.00 | 63 | 1019.9 |
| 20260509060056 | 11 | 0 | 0.0 | 1.6 | 0.00 | 0.00 | 0.00 | 62 | 1019.9 |
| 20260509055551 | 11 | 0 | 0.0 | 1.6 | 0.00 | 0.00 | 0.00 | 63 | 1020.0 |
| 20260509055047 | 11 | 0 | 0.0 | 1.6 | 0.00 | 0.00 | 0.00 | 59 | 1020.0 |
| 20260509054559 | 11 | 0 | 0.0 | 0.0 | 0.00 | 0.00 | 0.00 | 57 | 1020.0 |
| 20260509054050 | 11 | 0 | 0.0 | 0.0 | 0.00 | 0.00 | 0.00 | 56 | 1020.0 |
| 20260509053548 | 11 | 0 | 0.0 | 0.0 | 0.00 | 0.00 | 0.00 | 53 | 1020.0 |
| 20260509053101 | 11 | 0 | 0.0 | 0.0 | 0.00 | 0.00 | 0.00 | 52 | 1020.1 |
| 20260509052547 | 11 | 0 | 0.0 | 1.6 | 0.00 | 0.00 | 0.00 | 52 | 1020.0 |
| 20260509052050 | 11 | 0 | 0.0 | 1.6 | 0.00 | 0.00 | 0.00 | 52 | 1020.1 |
| 20260509051556 | 11 | 0 | 0.0 | 1.6 | 0.00 | 0.00 | 0.00 | 53 | 1020.0 |
| 20260509051049 | 11 | 20 | 0.0 | 1.6 | 0.00 | 0.00 | 0.00 | 54 | 1019.9 |
| 20260509050544 | 12 | 0 | 0.0 | 1.6 | 0.00 | 0.00 | 0.00 | 55 | 1019.9 |
| 20260509050056 | 12 | 0 | 0.0 | 3.2 | 0.00 | 0.00 | 0.00 | 56 | 1019.9 |
| 20260509045548 | 12 | 0 | 0.0 | 3.2 | 0.00 | 0.00 | 0.00 | 56 | 1019.8 |
| 20260509045044 | 12 | 20 | 0.0 | 3.2 | 0.00 | 0.00 | 0.00 | 54 | 1019.8 |
| 20260509044557 | 12 | 0 | 0.0 | 1.6 | 0.00 | 0.00 | 0.00 | 55 | 1019.8 |
| 20260509044045 | 12 | 0 | 0.0 | 1.6 | 0.00 | 0.00 | 0.00 | 54 | 1019.9 |
| 20260509043552 | 12 | 0 | 0.0 | 3.2 | 0.00 | 0.00 | 0.00 | 53 | 1019.8 |
| 20260509043059 | 12 | 12 | 0.0 | 3.2 | 0.00 | 0.00 | 0.00 | 53 | 1019.8 |
| 20260509042548 | 12 | 0 | 0.0 | 3.2 | 0.00 | 0.00 | 0.00 | 53 | 1019.7 |
| 20260509042048 | 12 | 12 | 0.0 | 3.2 | 0.00 | 0.00 | 0.00 | 54 | 1019.8 |
| 20260509041550 | 12 | 0 | 0.0 | 3.2 | 0.00 | 0.00 | 0.00 | 55 | 1019.7 |
| 20260509041044 | 12 | 5 | 0.0 | 3.2 | 0.00 | 0.00 | 0.00 | 57 | 1019.8 |
| 20260509040546 | 12 | 13 | 0.0 | 3.2 | 0.00 | 0.00 | 0.00 | 60 | 1019.7 |
| 20260509040058 | 12 | 0 | 1.6 | 4.8 | 0.00 | 0.00 | 0.00 | 66 | 1019.6 |
| 20260509035547 | 12 | 0 | 0.0 | 4.8 | 0.00 | 0.00 | 0.00 | 72 | 1019.6 |
| 20260509035045 | 12 | 0 | 0.0 | 3.2 | 0.00 | 0.00 | 0.00 | 77 | 1019.6 |
| 20260509034600 | 13 | 308 | 0.0 | 3.2 | 0.00 | 0.00 | 0.00 | 78 | 1019.6 |
| 20260509034046 | 13 | 0 | 0.0 | 3.2 | 0.00 | 0.00 | 0.00 | 78 | 1019.6 |
| 20260509033545 | 13 | 0 | 0.0 | 3.2 | 0.00 | 0.00 | 0.00 | 77 | 1019.6 |
| 20260509033050 | 13 | 0 | 0.0 | 1.6 | 0.00 | 0.00 | 0.00 | 77 | 1019.6 |
| 20260509032543 | 13 | 0 | 0.0 | 3.2 | 0.00 | 0.00 | 0.00 | 77 | 1019.5 |
| 20260509032048 | 13 | 0 | 0.0 | 3.2 | 0.00 | 0.00 | 0.00 | 75 | 1019.5 |
| 20260509031552 | 13 | 0 | 0.0 | 3.2 | 0.00 | 0.00 | 0.00 | 75 | 1019.4 |
| 20260509031048 | 14 | 0 | 0.0 | 4.8 | 0.00 | 0.00 | 0.00 | 75 | 1019.3 |
| 20260509030548 | 14 | 0 | 0.0 | 4.8 | 0.00 | 0.00 | 0.00 | 74 | 1019.4 |
| 20260509030052 | 15 | 0 | 0.0 | 3.2 | 0.00 | 0.00 | 0.00 | 73 | 1019.4 |
| 20260509025547 | 15 | 308 | 0.0 | 3.2 | 0.00 | 0.00 | 0.00 | 74 | 1019.3 |
| 20260509025050 | 15 | 308 | 0.0 | 3.2 | 0.00 | 0.00 | 0.00 | 74 | 1019.2 |
| 20260509024551 | 15 | 0 | 0.0 | 3.2 | 0.00 | 0.00 | 0.00 | 72 | 1019.3 |
| 20260509024047 | 15 | 308 | 0.0 | 3.2 | 0.00 | 0.00 | 0.00 | 70 | 1019.3 |
| 20260509023547 | 16 | 0 | 0.0 | 3.2 | 0.00 | 0.00 | 0.00 | 67 | 1019.3 |
| 20260509023052 | 16 | 0 | 0.0 | 0.0 | 0.00 | 0.00 | 0.00 | 67 | 1019.2 |
| 20260509022548 | 16 | 0 | 0.0 | 1.6 | 0.00 | 0.00 | 0.00 | 65 | 1019.1 |
| 20260509022047 | 16 | 0 | 0.0 | 1.6 | 0.00 | 0.00 | 0.00 | 64 | 1019.2 |
| 20260509021551 | 17 | 308 | 0.0 | 3.2 | 0.00 | 0.00 | 0.00 | 62 | 1019.1 |
| 20260509021045 | 17 | 0 | 0.0 | 3.2 | 0.00 | 0.00 | 0.00 | 60 | 1019.0 |
| 20260509020544 | 17 | 0 | 0.0 | 3.2 | 0.00 | 0.00 | 0.00 | 60 | 1019.0 |
| 20260509020053 | 18 | 0 | 0.0 | 4.8 | 0.00 | 0.00 | 0.00 | 58 | 1019.0 |
| 20260509015548 | 18 | 0 | 0.0 | 4.8 | 0.00 | 0.00 | 0.00 | 58 | 1019.0 |
| 20260509015048 | 18 | 308 | 0.0 | 4.8 | 0.00 | 0.00 | 0.00 | 56 | 1019.0 |
| 20260509014551 | 18 | 222 | 0.0 | 4.8 | 0.00 | 0.00 | 0.00 | 54 | 1019.0 |
| 20260509014048 | 19 | 0 | 0.0 | 4.8 | 0.00 | 0.00 | 0.00 | 53 | 1019.0 |
| 20260509013549 | 20 | 219 | 0.0 | 4.8 | 0.00 | 0.00 | 0.00 | 52 | 1019.0 |
| 20260509013049 | 20 | 273 | 0.0 | 4.8 | 0.00 | 0.00 | 0.00 | 50 | 1019.0 |
| 20260509012550 | 20 | 190 | 1.6 | 6.4 | 0.00 | 0.00 | 0.00 | 47 | 1019.0 |
| 20260509012050 | 20 | 0 | 1.6 | 8.0 | 0.00 | 0.00 | 0.00 | 43 | 1018.9 |
| 20260509011553 | 21 | 263 | 1.6 | 8.0 | 0.00 | 0.00 | 0.00 | 41 | 1019.1 |
| 20260509011047 | 21 | 174 | 3.2 | 8.0 | 0.00 | 0.00 | 0.00 | 41 | 1019.0 |
| 20260509010548 | 21 | 234 | 3.2 | 8.0 | 0.00 | 0.00 | 0.00 | 40 | 1019.0 |
| 20260509010050 | 21 | 0 | 1.6 | 16.1 | 0.00 | 0.00 | 0.00 | 42 | 1018.9 |
| 20260509005547 | 21 | 0 | 4.8 | 16.1 | 0.00 | 0.00 | 0.00 | 38 | 1018.9 |
| 20260509005046 | 21 | 220 | 1.6 | 12.9 | 0.00 | 0.00 | 0.00 | 42 | 1018.9 |
| 20260509004551 | 22 | 171 | 1.6 | 14.5 | 0.00 | 0.00 | 0.00 | 42 | 1019.1 |
| 20260509004044 | 22 | 234 | 4.8 | 14.5 | 0.00 | 0.00 | 0.00 | 41 | 1019.1 |
| 20260509003548 | 22 | 227 | 3.2 | 14.5 | 0.00 | 0.00 | 0.00 | 40 | 1019.1 |
| 20260509003051 | 22 | 225 | 1.6 | 14.5 | 0.00 | 0.00 | 0.00 | 41 | 1019.1 |
| 20260509002544 | 22 | 153 | 3.2 | 11.3 | 0.00 | 0.00 | 0.00 | 40 | 1019.2 |
| 20260509002047 | 23 | 175 | 3.2 | 11.3 | 0.00 | 0.00 | 0.00 | 39 | 1019.1 |
| 20260509001551 | 23 | 0 | 0.0 | 16.1 | 0.00 | 0.00 | 0.00 | 42 | 1019.2 |
| 20260509001048 | 23 | 0 | 3.2 | 16.1 | 0.00 | 0.00 | 0.00 | 39 | 1019.1 |
| 20260509000547 | 23 | 144 | 1.6 | 12.9 | 0.00 | 0.00 | 0.00 | 39 | 1019.2 |
| 20260509000051 | 23 | 148 | 3.2 | 16.1 | 0.00 | 0.00 | 0.00 | 37 | 1019.3 |
| 20260508235547 | 23 | 271 | 4.8 | 16.1 | 0.00 | 0.00 | 0.00 | 41 | 1019.4 |
| 20260508235045 | 23 | 112 | 1.6 | 11.3 | 0.00 | 0.00 | 0.00 | 41 | 1019.4 |
| 20260508234555 | 23 | 150 | 4.8 | 16.1 | 0.00 | 0.00 | 0.00 | 41 | 1019.4 |
| 20260508234045 | 23 | 165 | 3.2 | 16.1 | 0.00 | 0.00 | 0.00 | 39 | 1019.4 |
| 20260508233544 | 23 | 234 | 1.6 | 11.3 | 0.00 | 0.00 | 0.00 | 36 | 1019.3 |
| 20260508233102 | 23 | 109 | 3.2 | 17.7 | 0.00 | 0.00 | 0.00 | 37 | 1019.3 |
| 20260508232546 | 23 | 149 | 4.8 | 17.7 | 0.00 | 0.00 | 0.00 | 41 | 1019.4 |
| 20260508232044 | 23 | 180 | 4.8 | 14.5 | 0.00 | 0.00 | 0.00 | 40 | 1019.5 |
| 20260508231626 | 23 | 231 | 6.4 | 14.5 | 0.00 | 0.00 | 0.00 | 39 | 1019.6 |
| 20260508231048 | 24 | 186 | 3.2 | 11.3 | 0.00 | 0.00 | 0.00 | 41 | 1019.6 |
| 20260508230546 | 24 | 329 | 0.0 | 22.5 | 0.00 | 0.00 | 0.00 | 41 | 1019.6 |
| 20260508230059 | 24 | 254 | 6.4 | 22.5 | 0.00 | 0.00 | 0.00 | 40 | 1019.6 |
| 20260508225547 | 24 | 189 | 4.8 | 17.7 | 0.00 | 0.00 | 0.00 | 40 | 1019.7 |
| 20260508225047 | 24 | 110 | 3.2 | 17.7 | 0.00 | 0.00 | 0.00 | 43 | 1019.6 |
| 20260508224550 | 24 | 138 | 3.2 | 17.7 | 0.00 | 0.00 | 0.00 | 41 | 1019.7 |
| 20260508224047 | 24 | 132 | 4.8 | 16.1 | 0.00 | 0.00 | 0.00 | 42 | 1019.9 |
| 20260508223547 | 24 | 129 | 1.6 | 11.3 | 0.00 | 0.00 | 0.00 | 41 | 1019.9 |
| 20260508223052 | 24 | 202 | 4.8 | 16.1 | 0.00 | 0.00 | 0.00 | 39 | 1020.0 |
| 20260508222547 | 25 | 61 | 4.8 | 16.1 | 0.00 | 0.00 | 0.00 | 38 | 1020.0 |
| 20260508222048 | 24 | 308 | 6.4 | 16.1 | 0.00 | 0.00 | 0.00 | 38 | 1020.0 |
| 20260508221551 | 25 | 259 | 3.2 | 12.9 | 0.00 | 0.00 | 0.00 | 38 | 1020.1 |
| 20260508221048 | 25 | 155 | 3.2 | 14.5 | 0.00 | 0.00 | 0.00 | 40 | 1020.1 |
| 20260508220548 | 25 | 61 | 4.8 | 20.9 | 0.00 | 0.00 | 0.00 | 36 | 1020.0 |
| 20260508220057 | 24 | 140 | 4.8 | 20.9 | 0.00 | 0.00 | 0.00 | 39 | 1020.1 |
| 20260508215548 | 25 | 0 | 8.0 | 19.3 | 0.00 | 0.00 | 0.00 | 36 | 1020.2 |
| 20260508215048 | 25 | 99 | 1.6 | 16.1 | 0.00 | 0.00 | 0.00 | 37 | 1020.0 |
| 20260508214626 | 25 | 182 | 4.8 | 14.5 | 0.00 | 0.00 | 0.00 | 38 | 1020.3 |
| 20260508214050 | 25 | 219 | 4.8 | 14.5 | 0.00 | 0.00 | 0.00 | 37 | 1020.2 |
| 20260508213549 | 25 | 174 | 1.6 | 14.5 | 0.00 | 0.00 | 0.00 | 39 | 1020.3 |
| 20260508213052 | 25 | 131 | 3.2 | 16.1 | 0.00 | 0.00 | 0.00 | 41 | 1020.3 |
| 20260508212548 | 25 | 150 | 4.8 | 16.1 | 0.00 | 0.00 | 0.00 | 38 | 1020.3 |
| 20260508212048 | 25 | 143 | 1.6 | 9.7 | 0.00 | 0.00 | 0.00 | 40 | 1020.3 |
| 20260508211550 | 25 | 149 | 3.2 | 16.1 | 0.00 | 0.00 | 0.00 | 39 | 1020.3 |
| 20260508211048 | 25 | 122 | 4.8 | 16.1 | 0.00 | 0.00 | 0.00 | 38 | 1020.3 |
| 20260508210548 | 25 | 157 | 3.2 | 20.9 | 0.00 | 0.00 | 0.00 | 40 | 1020.3 |
| 20260508210055 | 25 | 184 | 6.4 | 20.9 | 0.00 | 0.00 | 0.00 | 38 | 1020.4 |
| 20260508205548 | 25 | 163 | 4.8 | 11.3 | 0.00 | 0.00 | 0.00 | 40 | 1020.3 |
| 20260508205048 | 25 | 147 | 1.6 | 16.1 | 0.00 | 0.00 | 0.00 | 42 | 1020.3 |
| 20260508204556 | 25 | 175 | 6.4 | 16.1 | 0.00 | 0.00 | 0.00 | 39 | 1020.4 |
| 20260508204047 | 25 | 130 | 3.2 | 11.3 | 0.00 | 0.00 | 0.00 | 39 | 1020.3 |
| 20260508203547 | 25 | 43 | 3.2 | 14.5 | 0.00 | 0.00 | 0.00 | 38 | 1020.2 |
| 20260508203110 | 25 | 282 | 3.2 | 14.5 | 0.00 | 0.00 | 0.00 | 38 | 1020.3 |
| 20260508202547 | 25 | 209 | 4.8 | 16.1 | 0.00 | 0.00 | 0.00 | 36 | 1020.3 |
| 20260508202047 | 24 | 155 | 4.8 | 19.3 | 0.00 | 0.00 | 0.00 | 38 | 1020.3 |
| 20260508201550 | 24 | 153 | 6.4 | 19.3 | 0.00 | 0.00 | 0.00 | 36 | 1020.4 |
| 20260508201048 | 25 | 134 | 4.8 | 11.3 | 0.00 | 0.00 | 0.00 | 36 | 1020.3 |
| 20260508200548 | 24 | 207 | 3.2 | 17.7 | 0.00 | 0.00 | 0.00 | 39 | 1020.2 |
| 20260508200049 | 24 | 0 | 3.2 | 17.7 | 0.00 | 0.00 | 0.00 | 38 | 1020.4 |
| 20260508195547 | 24 | 204 | 6.4 | 19.3 | 0.00 | 0.00 | 0.00 | 37 | 1020.4 |
| 20260508195047 | 24 | 275 | 6.4 | 19.3 | 0.00 | 0.00 | 0.00 | 36 | 1020.4 |
| 20260508194555 | 25 | 267 | 4.8 | 11.3 | 0.00 | 0.00 | 0.00 | 38 | 1020.6 |
| 20260508194046 | 25 | 126 | 3.2 | 11.3 | 0.00 | 0.00 | 0.00 | 36 | 1020.5 |
| 20260508193547 | 24 | 92 | 3.2 | 12.9 | 0.00 | 0.00 | 0.00 | 36 | 1020.6 |
| 20260508193119 | 24 | 95 | 1.6 | 14.5 | 0.00 | 0.00 | 0.00 | 38 | 1020.7 |
| 20260508192547 | 24 | 134 | 4.8 | 14.5 | 0.00 | 0.00 | 0.00 | 40 | 1020.7 |
| 20260508192049 | 24 | 190 | 3.2 | 16.1 | 0.00 | 0.00 | 0.00 | 40 | 1020.8 |
| 20260508191602 | 24 | 148 | 1.6 | 16.1 | 0.00 | 0.00 | 0.00 | 41 | 1020.8 |
| 20260508191048 | 24 | 170 | 3.2 | 17.7 | 0.00 | 0.00 | 0.00 | 44 | 1020.9 |
| 20260508190548 | 24 | 157 | 4.8 | 17.7 | 0.00 | 0.00 | 0.00 | 43 | 1020.8 |
| 20260508190056 | 24 | 119 | 1.6 | 17.7 | 0.00 | 0.00 | 0.00 | 45 | 1020.8 |
| 20260508185548 | 23 | 132 | 6.4 | 17.7 | 0.00 | 0.00 | 0.00 | 43 | 1020.8 |
| 20260508185047 | 23 | 114 | 6.4 | 14.5 | 0.00 | 0.00 | 0.00 | 46 | 1020.8 |
| 20260508184553 | 24 | 156 | 4.8 | 12.9 | 0.00 | 0.00 | 0.00 | 48 | 1020.8 |
| 20260508184047 | 24 | 193 | 3.2 | 14.5 | 0.00 | 0.00 | 0.00 | 47 | 1020.9 |
| 20260508183547 | 24 | 121 | 4.8 | 14.5 | 0.00 | 0.00 | 0.00 | 45 | 1020.8 |
| 20260508183052 | 24 | 179 | 3.2 | 11.3 | 0.00 | 0.00 | 0.00 | 45 | 1020.8 |
| 20260508182549 | 23 | 123 | 3.2 | 11.3 | 0.00 | 0.00 | 0.00 | 44 | 1020.8 |
| 20260508182046 | 23 | 144 | 3.2 | 11.3 | 0.00 | 0.00 | 0.00 | 46 | 1020.8 |
| 20260508181556 | 23 | 144 | 1.6 | 11.3 | 0.00 | 0.00 | 0.00 | 48 | 1020.8 |
| 20260508181044 | 23 | 148 | 1.6 | 14.5 | 0.00 | 0.00 | 0.00 | 47 | 1020.8 |
| 20260508180546 | 23 | 161 | 3.2 | 14.5 | 0.00 | 0.00 | 0.00 | 45 | 1020.8 |
| 20260508180105 | 23 | 188 | 4.8 | 16.1 | 0.00 | 0.00 | 0.00 | 46 | 1020.8 |
| 20260508175548 | 23 | 160 | 3.2 | 16.1 | 0.00 | 0.00 | 0.00 | 46 | 1020.8 |
| 20260508175049 | 23 | 152 | 1.6 | 11.3 | 0.00 | 0.00 | 0.00 | 46 | 1020.7 |
| 20260508174611 | 23 | 152 | 3.2 | 11.3 | 0.00 | 0.00 | 0.00 | 46 | 1020.8 |
| 20260508174048 | 23 | 0 | 3.2 | 11.3 | 0.00 | 0.00 | 0.00 | 44 | 1020.7 |
| 20260508173547 | 23 | 267 | 3.2 | 11.3 | 0.00 | 0.00 | 0.00 | 44 | 1020.6 |
| 20260508173053 | 23 | 163 | 3.2 | 9.7 | 0.00 | 0.00 | 0.00 | 45 | 1020.7 |
| 20260508172548 | 23 | 170 | 3.2 | 12.9 | 0.00 | 0.00 | 0.00 | 46 | 1020.7 |
| 20260508172048 | 23 | 144 | 3.2 | 12.9 | 0.00 | 0.00 | 0.00 | 43 | 1020.7 |
| 20260508171552 | 23 | 169 | 1.6 | 12.9 | 0.00 | 0.00 | 0.00 | 43 | 1020.7 |
| 20260508171051 | 23 | 196 | 3.2 | 12.9 | 0.00 | 0.00 | 0.00 | 42 | 1020.7 |
| 20260508170549 | 22 | 0 | 1.6 | 9.7 | 0.00 | 0.00 | 0.00 | 42 | 1020.6 |
| 20260508170054 | 22 | 145 | 3.2 | 9.7 | 0.00 | 0.00 | 0.00 | 43 | 1020.6 |
| 20260508165547 | 22 | 176 | 1.6 | 9.7 | 0.00 | 0.03 | 0.00 | 46 | 1020.6 |
| 20260508165049 | 22 | 0 | 1.6 | 9.7 | 0.00 | 0.03 | 0.00 | 44 | 1020.6 |
| 20260508164558 | 22 | 125 | 1.6 | 8.0 | 0.00 | 0.03 | 0.00 | 46 | 1020.7 |
| 20260508164047 | 22 | 336 | 0.0 | 6.4 | 0.00 | 0.03 | 0.00 | 47 | 1020.6 |
| 20260508163549 | 21 | 0 | 0.0 | 6.4 | 0.00 | 0.03 | 0.00 | 50 | 1020.6 |
| 20260508163051 | 21 | 0 | 0.0 | 6.4 | 0.00 | 0.03 | 0.00 | 51 | 1020.6 |
| 20260508162547 | 21 | 144 | 1.6 | 6.4 | 0.00 | 0.03 | 0.00 | 51 | 1020.5 |
| 20260508162049 | 21 | 178 | 1.6 | 8.0 | 0.00 | 0.03 | 0.00 | 52 | 1020.6 |
| 20260508161556 | 20 | 202 | 0.0 | 8.0 | 0.00 | 0.03 | 0.00 | 53 | 1020.5 |
| 20260508161048 | 20 | 0 | 3.2 | 8.0 | 0.00 | 0.03 | 0.00 | 52 | 1020.5 |
| 20260508160633 | 19 | 0 | 0.0 | 4.8 | 0.00 | 0.03 | 0.00 | 53 | 1020.5 |
| 20260508160053 | 18 | 200 | 0.0 | 4.8 | 0.00 | 0.03 | 0.00 | 56 | 1020.5 |
| 20260508155549 | 18 | 0 | 0.0 | 6.4 | 0.00 | 0.03 | 0.00 | 56 | 1020.5 |
| 20260508155047 | 17 | 56 | 1.6 | 6.4 | 0.00 | 0.03 | 0.00 | 56 | 1020.4 |
| 20260508154553 | 17 | 278 | 0.0 | 3.2 | 0.00 | 0.03 | 0.00 | 61 | 1020.5 |
| 20260508154047 | 16 | 0 | 0.0 | 4.8 | 0.00 | 0.03 | 0.00 | 63 | 1020.5 |
| 20260508153548 | 16 | 136 | 0.0 | 4.8 | 0.00 | 0.03 | 0.00 | 60 | 1020.5 |
| 20260508153055 | 15 | 202 | 0.0 | 8.0 | 0.00 | 0.03 | 0.00 | 65 | 1020.5 |
| 20260508152546 | 15 | 37 | 0.0 | 8.0 | 0.00 | 0.03 | 0.00 | 63 | 1020.5 |
| 20260508152048 | 15 | 51 | 1.6 | 6.4 | 0.00 | 0.03 | 0.00 | 60 | 1020.5 |
| 20260508151553 | 14 | 48 | 1.6 | 9.7 | 0.00 | 0.03 | 0.00 | 64 | 1020.5 |
| 20260508151046 | 13 | 41 | 1.6 | 9.7 | 0.00 | 0.03 | 0.00 | 64 | 1020.5 |
| 20260508150546 | 13 | 37 | 1.6 | 6.4 | 0.00 | 0.03 | 0.00 | 62 | 1020.5 |
| 20260508150059 | 13 | 40 | 1.6 | 6.4 | 0.00 | 0.03 | 0.00 | 62 | 1020.5 |
| 20260508145544 | 13 | 40 | 1.6 | 6.4 | 0.00 | 0.03 | 0.00 | 65 | 1020.4 |
| 20260508145048 | 12 | 34 | 1.6 | 4.8 | 0.00 | 0.03 | 0.00 | 65 | 1020.4 |
| 20260508144556 | 12 | 45 | 0.0 | 3.2 | 0.00 | 0.03 | 0.00 | 64 | 1020.3 |
| 20260508144047 | 12 | 45 | 0.0 | 3.2 | 0.00 | 0.03 | 0.00 | 65 | 1020.2 |
| 20260508143545 | 11 | 46 | 0.0 | 3.2 | 0.00 | 0.03 | 0.00 | 66 | 1020.2 |
| 20260508143104 | 11 | 46 | 1.6 | 3.2 | 0.00 | 0.03 | 0.00 | 66 | 1020.2 |
| 20260508142545 | 11 | 0 | 1.6 | 3.2 | 0.00 | 0.03 | 0.00 | 68 | 1020.3 |
| 20260508142048 | 11 | 30 | 0.0 | 3.2 | 0.00 | 0.03 | 0.00 | 70 | 1020.2 |
| 20260508141554 | 11 | 30 | 0.0 | 4.8 | 0.00 | 0.03 | 0.00 | 71 | 1020.2 |
| 20260508141046 | 10 | 0 | 0.0 | 4.8 | 0.00 | 0.03 | 0.00 | 71 | 1020.2 |
| 20260508140544 | 10 | 30 | 0.0 | 3.2 | 0.00 | 0.03 | 0.00 | 70 | 1020.2 |
| 20260508140104 | 10 | 0 | 0.0 | 3.2 | 0.00 | 0.03 | 0.00 | 73 | 1020.3 |
| 20260508135545 | 10 | 0 | 0.0 | 3.2 | 0.00 | 0.03 | 0.00 | 73 | 1020.2 |
| 20260508135045 | 10 | 0 | 0.0 | 1.6 | 0.00 | 0.03 | 0.00 | 73 | 1020.2 |
| 20260508134602 | 10 | 0 | 0.0 | 1.6 | 0.00 | 0.03 | 0.00 | 73 | 1020.1 |
| 20260508134045 | 10 | 0 | 0.0 | 1.6 | 0.00 | 0.03 | 0.00 | 72 | 1020.1 |
| 20260508133545 | 10 | 0 | 0.0 | 0.0 | 0.00 | 0.03 | 0.00 | 72 | 1020.1 |
| 20260508133051 | 10 | 0 | 0.0 | 0.0 | 0.00 | 0.03 | 0.00 | 72 | 1020.1 |
| 20260508132549 | 10 | 0 | 0.0 | 0.0 | 0.00 | 0.03 | 0.00 | 72 | 1020.0 |
| 20260508132045 | 10 | 0 | 0.0 | 0.0 | 0.00 | 0.03 | 0.00 | 71 | 1020.0 |
| 20260508131555 | 10 | 0 | 0.0 | 0.0 | 0.00 | 0.03 | 0.00 | 70 | 1020.0 |
| 20260508131048 | 10 | 0 | 0.0 | 0.0 | 0.00 | 0.03 | 0.00 | 70 | 1020.0 |
| 20260508130547 | 10 | 0 | 0.0 | 0.0 | 0.00 | 0.03 | 0.00 | 72 | 1019.9 |
| 20260508130053 | 10 | 0 | 0.0 | 0.0 | 0.00 | 0.03 | 0.00 | 71 | 1019.8 |
| 20260508125548 | 10 | 0 | 0.0 | 0.0 | 0.00 | 0.03 | 0.00 | 69 | 1019.8 |
| 20260508125045 | 10 | 0 | 0.0 | 0.0 | 0.00 | 0.03 | 0.00 | 67 | 1019.8 |
| 20260508124558 | 10 | 0 | 0.0 | 0.0 | 0.00 | 0.03 | 0.00 | 68 | 1019.8 |
| 20260508124048 | 10 | 0 | 0.0 | 0.0 | 0.00 | 0.03 | 0.00 | 68 | 1019.7 |
| 20260508123545 | 10 | 0 | 0.0 | 0.0 | 0.00 | 0.03 | 0.00 | 70 | 1019.7 |
| 20260508123055 | 10 | 0 | 0.0 | 1.6 | 0.00 | 0.03 | 0.00 | 69 | 1019.7 |
| 20260508122545 | 10 | 0 | 0.0 | 3.2 | 0.00 | 0.03 | 0.00 | 70 | 1019.7 |
| 20260508122045 | 10 | 0 | 0.0 | 3.2 | 0.00 | 0.03 | 0.00 | 71 | 1019.7 |
| 20260508121557 | 10 | 12 | 0.0 | 1.6 | 0.00 | 0.03 | 0.00 | 71 | 1019.6 |
| 20260508121044 | 10 | 0 | 0.0 | 0.0 | 0.00 | 0.03 | 0.00 | 69 | 1019.6 |
| 20260508120545 | 10 | 0 | 0.0 | 0.0 | 0.00 | 0.03 | 0.00 | 72 | 1019.6 |
| 20260508120056 | 10 | 0 | 0.0 | 0.0 | 0.00 | 0.03 | 0.00 | 70 | 1019.6 |
| 20260508115546 | 10 | 0 | 0.0 | 0.0 | 0.00 | 0.03 | 0.00 | 73 | 1019.5 |
| 20260508115045 | 10 | 0 | 0.0 | 0.0 | 0.00 | 0.03 | 0.00 | 72 | 1019.5 |
| 20260508114604 | 10 | 0 | 0.0 | 0.0 | 0.00 | 0.03 | 0.00 | 72 | 1019.5 |
| 20260508114048 | 10 | 0 | 0.0 | 0.0 | 0.00 | 0.03 | 0.00 | 72 | 1019.6 |
| 20260508113545 | 10 | 0 | 0.0 | 0.0 | 0.00 | 0.03 | 0.00 | 72 | 1019.6 |
| 20260508113103 | 10 | 0 | 0.0 | 0.0 | 0.00 | 0.03 | 0.00 | 72 | 1019.6 |
| 20260508112547 | 10 | 0 | 0.0 | 0.0 | 0.00 | 0.03 | 0.00 | 73 | 1019.6 |
| 20260508112048 | 10 | 0 | 0.0 | 0.0 | 0.00 | 0.03 | 0.00 | 71 | 1019.6 |
| 20260508111600 | 10 | 0 | 0.0 | 0.0 | 0.00 | 0.03 | 0.00 | 71 | 1019.6 |
| 20260508111045 | 10 | 0 | 0.0 | 0.0 | 0.00 | 0.03 | 0.00 | 71 | 1019.6 |
| 20260508110546 | 10 | 0 | 0.0 | 0.0 | 0.00 | 0.03 | 0.00 | 71 | 1019.6 |
| 20260508110051 | 10 | 0 | 0.0 | 0.0 | 0.00 | 0.03 | 0.00 | 71 | 1019.6 |
| 20260508105548 | 11 | 0 | 0.0 | 0.0 | 0.00 | 0.03 | 0.00 | 72 | 1019.6 |
| 20260508105046 | 11 | 0 | 0.0 | 0.0 | 0.00 | 0.03 | 0.00 | 71 | 1019.6 |
| 20260508104600 | 11 | 0 | 0.0 | 0.0 | 0.00 | 0.03 | 0.00 | 71 | 1019.6 |
| 20260508104045 | 11 | 0 | 0.0 | 1.6 | 0.00 | 0.03 | 0.00 | 72 | 1019.6 |
| 20260508103549 | 11 | 0 | 0.0 | 1.6 | 0.00 | 0.03 | 0.00 | 73 | 1019.6 |
| 20260508103049 | 11 | 0 | 0.0 | 1.6 | 0.00 | 0.03 | 0.00 | 74 | 1019.6 |
| 20260508102546 | 11 | 0 | 0.0 | 0.0 | 0.00 | 0.03 | 0.00 | 72 | 1019.6 |
| 20260508102045 | 11 | 0 | 0.0 | 0.0 | 0.00 | 0.03 | 0.00 | 72 | 1019.7 |
| 20260508101554 | 11 | 0 | 0.0 | 0.0 | 0.00 | 0.03 | 0.00 | 72 | 1019.7 |
| 20260508101047 | 11 | 0 | 0.0 | 0.0 | 0.00 | 0.03 | 0.00 | 72 | 1019.7 |
| 20260508100547 | 11 | 0 | 0.0 | 0.0 | 0.00 | 0.03 | 0.00 | 71 | 1019.8 |
| 20260508100053 | 11 | 0 | 0.0 | 0.0 | 0.00 | 0.03 | 0.00 | 69 | 1019.8 |
| 20260508095546 | 11 | 0 | 0.0 | 0.0 | 0.00 | 0.03 | 0.00 | 72 | 1019.7 |
| 20260508095045 | 12 | 0 | 0.0 | 0.0 | 0.00 | 0.03 | 0.00 | 73 | 1019.7 |
| 20260508094602 | 12 | 0 | 0.0 | 0.0 | 0.00 | 0.03 | 0.00 | 72 | 1019.7 |
| 20260508094044 | 12 | 0 | 0.0 | 0.0 | 0.00 | 0.03 | 0.00 | 73 | 1019.7 |
| 20260508093547 | 12 | 0 | 0.0 | 0.0 | 0.00 | 0.03 | 0.00 | 73 | 1019.6 |
| 20260508093100 | 12 | 0 | 0.0 | 0.0 | 0.00 | 0.03 | 0.00 | 71 | 1019.6 |
| 20260508092545 | 12 | 0 | 0.0 | 3.2 | 0.00 | 0.03 | 0.00 | 71 | 1019.7 |
| 20260508092044 | 12 | 0 | 0.0 | 3.2 | 0.00 | 0.03 | 0.00 | 71 | 1019.7 |
| 20260508091605 | 12 | 0 | 0.0 | 3.2 | 0.00 | 0.03 | 0.00 | 70 | 1019.7 |
| 20260508091045 | 12 | 0 | 0.0 | 3.2 | 0.00 | 0.03 | 0.00 | 69 | 1019.8 |
| 20260508090546 | 12 | 12 | 0.0 | 3.2 | 0.00 | 0.03 | 0.00 | 68 | 1019.8 |
| 20260508090105 | 12 | 0 | 0.0 | 4.8 | 0.00 | 0.03 | 0.00 | 68 | 1019.8 |
| 20260508085545 | 12 | 24 | 0.0 | 4.8 | 0.00 | 0.03 | 0.00 | 67 | 1019.9 |
| 20260508085045 | 12 | 5 | 0.0 | 3.2 | 0.00 | 0.03 | 0.00 | 65 | 1019.9 |